Retour au catalogue

NSS 9

ActifCommunicationsGEO
NORAD 33749·PAYLOAD·🇱🇺 Luxembourg

Lancé Feb 12, 2009 depuis Guiana Space Centre

Loading…

TLE

FraisSource: CelesTrak SupGP

Époque: Sep 13, 2026, 23:30 UTC

1 33749C 09008A   26256.97916667  .00000161  00000+0  00000+0 0  2567
2 33749   1.4849  81.6177 0002119  76.3042  10.6133  1.00270644    18

Suivez NSS 9 en temps réel avec AllMySat

Download on the App Store